Vertical_Velocity
-2 -4 -4 -3 -2 -2 -2 -1 -8 -27 -24 11 -4 4 1 1 2 -3 2 6 4 7 -0 -0 4 -7 10 13 -4 2 5 24 9 41 4 8 38 1
-4 -4 -3 -5 1 -1 -4 -0 5 -1 -37 1 -10 4 3 1 -0 -1 2 -1 5 5 6 1 -8 4 -5 0 7 2 -10 1 13 15 6 -9 25 10
-3 -6 -2 -6 -3 -1 -1 -1 -4 4 -6 -16 -0 1 2 -4 7 1 -1 -0 2 6 3 -2 -0 -5 -3 -4 -6 -1 7 0 1 2 7 -6 11 4
-4 -6 -2 -3 -0 -4 -5 -3 -3 3 -2 -16 5 -3 -4 -2 -1 -2 3 4 -5 4 2 -2 -0 1 1 -3 -4 -10 5 -2 -10 -6 3 4 3 -2
-6 -3 -0 -4 -6 -5 -2 -3 -2 -1 1 -5 -11 -3 -6 -1 -1 0 2 -1 1 -1 -0 -0 0 0 -2 -4 -1 -3 -5 -8 -7 -6 -7 -1 3 -5
-1 -3 -5 -6 -5 -5 -2 0 -2 -1 2 -1 -1 -10 -5 2 -1 -9 -0 -1 -3 -2 -1 1 -1 -4 -6 -2 -5 -3 -1 -2 1 -4 4 -5 3 9
-3 -3 -2 -4 -3 -2 -4 0 1 1 -0 -5 -2 -3 -1 -5 -1 2 -9 1 7 -3 5 -5 -3 1 -2 -3 -3 -3 -3 2 2 -5 -6 -1 -8 1
-1 2 -5 -5 -4 -0 1 -2 2 -2 1 -7 -2 -0 3 -2 -3 -5 -3 -2 0 19 -11 -1 -7 -4 -1 -8 -4 -3 -2 -7 -4 -0 0 1 9 -2
-2 -6 -1 -3 -4 -3 -1 1 3 5 -0 -6 -5 3 -7 -0 -7 -1 2 -4 3 10 -17 20 -17 5 -8 -1 1 -0 1 -2 -5 -4 -3 -6 -1 1
-4 -3 -4 -3 -3 -4 -1 1 2 2 -1 -1 -2 -2 -2 -2 -3 -3 3 5 1 3 1 7 -8 4 -1 3 -0 -0 -1 0 4 2 1 -1 2 2
-4 -2 -2 -2 -2 -1 -3 -4 5 6 8 2 0 -2 -1 -4 -4 0 3 -1 4 6 7 1 1 2 0 -1 -2 -0 1 1 1 0 1 2 3 -3
-5 -3 2 -3 -3 -3 -8 -4 2 0 3 8 4 -1 -1 -2 -1 -2 0 -0 2 3 8 -0 2 -0 -1 -1 -1 -1 -0 -0 2 1 -2 3 8 -2
-2 1 0 -1 1 -1 -3 -3 -4 -2 4 0 -1 -1 0 -0 -0 -2 -2 0 -0 2 9 -0 2 2 1 3 1 1 3 -0 -2 2 6 -0 -2 -1
-2 4 -1 1 1 -1 0 -2 -1 0 2 1 -0 0 0 -0 -1 -0 -0 -1 0 -2 -1 -1 3 -0 2 2 3 1 1 -3 3 -1 -3 8 -3 1
1 2 0 -2 -2 0 -3 -3 1 2 1 -1 -2 -1 -1 -1 -1 0 -0 -1 -0 1 2 1 3 2 2 -0 1 1 1 -2 2 4 4 2 3 -3
3 4 -1 -3 -5 -2 -1 -1 0 1 0 2 2 0 -1 -1 -1 0 -0 -0 1 1 2 3 0 5 -2 -2 1 1 1 1 3 3 5 3 0 0
-0 0 0 -0 0 -0 -2 -1 0 0 0 -0 0 1 1 -1 -1 2 1 1 1 2 3 3 5 -4 11 1 0 1 3 2 4 2 1 2 4 1
4 -2 1 -1 -0 1 -1 -0 1 1 -0 0 -0 -0 1 0 1 2 3 4 3 5 4 1 1 3 0 -2 -0 1 1 2 3 1 2 1 -1 0
-1 -1 0 -0 -0 -2 2 2 4 3 1 1 2 2 2 2 3 5 6 4 4 3 4 4 3 1 1 1 1 0 1 2 4 2 5 1 2 3
-1 0 0 -1 -2 2 2 3 3 1 1 1 2 2 3 2 2 2 3 3 2 1 3 3 4 5 9 1 4 6 2 4 3 2 5 9 8 4
-0 -1 -1 -1 3 2 3 2 2 2 3 3 3 3 2 2 5 2 1 2 2 3 4 3 3 3 3 4 5 4 4 4 5 4 2 3 3 3
-0 -1 0 3 2 3 2 2 1 2 2 3 4 4 5 3 3 2 1 1 2 0 1 1 1 1 1 2 3 3 2 3 3 4 4 4 1 0
-1 2 3 2 2 2 2 1 1 2 2 1 -0 0 0 1 2 2 3 3 2 1 1 3 4 4 4 3 2 1 1 3 4 4 3 2 1 -2
Height
5571 5558 5545 5531 5517 5501 5486 5469 5448 5436 5438 5455 5434 5431 5412 5409 5405 5401 5401 5402 5403 5404 5404 5407 5408 5412 5421 5427 5431 5434 5444 5448 5454 5457 5469 5475 5476 5487
5548 5536 5521 5507 5492 5475 5458 5444 5429 5407 5392 5414 5409 5399 5393 5383 5380 5378 5376 5375 5378 5381 5383 5381 5382 5389 5392 5397 5403 5410 5417 5421 5429 5438 5446 5455 5460 5468
5527 5512 5496 5479 5463 5447 5432 5418 5404 5387 5367 5377 5363 5371 5358 5350 5349 5347 5348 5348 5352 5356 5357 5358 5363 5366 5371 5376 5380 5385 5390 5397 5404 5410 5424 5435 5444 5453
5504 5487 5468 5452 5438 5423 5408 5395 5379 5366 5347 5340 5342 5337 5331 5324 5315 5314 5317 5319 5324 5331 5333 5337 5341 5345 5349 5354 5360 5365 5368 5373 5381 5389 5399 5416 5423 5433
5478 5459 5444 5428 5416 5400 5385 5370 5357 5347 5337 5321 5317 5312 5306 5300 5289 5284 5283 5288 5294 5302 5308 5314 5318 5323 5328 5334 5341 5346 5351 5356 5362 5367 5378 5387 5398 5409
5453 5437 5421 5408 5393 5379 5365 5350 5338 5329 5319 5306 5297 5290 5282 5278 5262 5253 5251 5254 5262 5272 5280 5286 5294 5298 5305 5312 5319 5326 5332 5338 5344 5349 5357 5368 5379 5389
5434 5418 5403 5389 5373 5358 5343 5333 5320 5311 5299 5287 5280 5271 5263 5254 5244 5236 5227 5228 5235 5243 5250 5258 5268 5277 5283 5288 5295 5301 5308 5315 5321 5329 5337 5349 5361 5372
5415 5401 5386 5369 5354 5341 5328 5315 5305 5293 5282 5270 5264 5253 5247 5237 5229 5221 5214 5210 5215 5222 5221 5238 5242 5251 5257 5261 5266 5271 5278 5287 5296 5308 5319 5332 5344 5354
5395 5382 5367 5350 5335 5324 5314 5303 5293 5281 5268 5257 5245 5238 5230 5223 5214 5210 5204 5200 5201 5203 5206 5217 5219 5229 5232 5237 5240 5245 5253 5263 5276 5291 5304 5317 5329 5339
5378 5362 5345 5332 5318 5306 5298 5290 5280 5270 5259 5247 5234 5222 5216 5210 5203 5198 5195 5193 5193 5194 5196 5203 5206 5211 5215 5219 5222 5227 5235 5245 5260 5276 5289 5302 5315 5324
5363 5345 5329 5316 5303 5291 5281 5274 5268 5260 5249 5236 5223 5213 5205 5199 5194 5192 5190 5189 5188 5191 5193 5194 5197 5201 5203 5206 5210 5216 5224 5235 5248 5263 5276 5289 5300 5311
5349 5330 5315 5301 5288 5277 5267 5259 5253 5247 5238 5229 5218 5207 5199 5193 5190 5187 5187 5187 5186 5189 5191 5193 5195 5196 5198 5200 5203 5208 5217 5228 5242 5255 5266 5278 5289 5300
5334 5319 5304 5290 5279 5268 5256 5246 5239 5233 5227 5217 5209 5202 5196 5190 5187 5184 5183 5185 5184 5186 5188 5190 5192 5194 5195 5198 5200 5205 5214 5224 5237 5249 5259 5269 5278 5290
5317 5306 5292 5281 5269 5258 5246 5237 5231 5224 5216 5209 5203 5198 5193 5188 5184 5182 5181 5181 5182 5183 5185 5185 5187 5189 5191 5195 5199 5203 5211 5220 5232 5242 5252 5261 5272 5282
5303 5291 5279 5268 5256 5246 5237 5230 5223 5216 5210 5205 5200 5196 5191 5188 5184 5182 5180 5180 5181 5181 5181 5182 5184 5186 5188 5191 5195 5201 5208 5217 5228 5238 5247 5257 5266 5276
5292 5281 5269 5257 5246 5237 5230 5223 5217 5212 5208 5204 5200 5195 5191 5188 5185 5183 5181 5180 5179 5179 5179 5180 5181 5183 5185 5188 5193 5198 5206 5214 5224 5233 5242 5252 5261 5271
5281 5271 5261 5251 5240 5231 5224 5219 5215 5211 5207 5202 5198 5195 5191 5188 5185 5183 5181 5180 5179 5178 5178 5178 5179 5181 5184 5187 5192 5198 5205 5213 5221 5230 5238 5247 5256 5265
5272 5263 5254 5243 5235 5229 5224 5219 5215 5211 5206 5201 5196 5193 5191 5188 5186 5185 5183 5181 5180 5179 5177 5176 5177 5180 5184 5188 5193 5199 5205 5212 5220 5228 5236 5244 5252 5261
5264 5256 5247 5239 5232 5228 5224 5220 5216 5210 5204 5199 5197 5194 5192 5190 5188 5187 5185 5184 5183 5181 5179 5180 5181 5184 5188 5191 5196 5202 5208 5214 5221 5229 5236 5242 5249 5257
5256 5249 5242 5236 5232 5228 5225 5220 5215 5209 5205 5201 5199 5196 5194 5192 5190 5189 5187 5187 5186 5186 5185 5185 5186 5189 5192 5196 5200 5206 5211 5216 5222 5228 5234 5240 5245 5251
5250 5244 5239 5236 5232 5229 5225 5220 5215 5212 5208 5205 5201 5199 5196 5195 5193 5192 5191 5191 5191 5192 5192 5192 5193 5194 5196 5200 5203 5207 5211 5216 5221 5226 5231 5236 5241 5247
5245 5241 5238 5236 5233 5230 5226 5222 5218 5215 5212 5209 5207 5204 5203 5200 5198 5197 5196 5196 5196 5196 5197 5197 5199 5200 5202 5205 5208 5211 5214 5218 5222 5226 5231 5236 5240 5245
5242 5240 5239 5237 5234 5230 5227 5225 5222 5219 5216 5213 5209 5207 5205 5204 5202 5201 5200 5200 5199 5200 5200 5200 5201 5202 5204 5207 5209 5212 5215 5218 5221 5225 5229 5233 5237 5241